Weather History for Crestview, FL

Change the Weather History Date:

Tuesday, January 8, 2013

  Actual Average Record
Temperature  
Mean Temperature 54 °F -  
Max Temperature 64 °F 60 °F 75 °F (2005)
Min Temperature 45 °F 39 °F 16 °F (2014)
Degree Days  
Heating Degree Days 10    
Growing Degree Days 4 (Base 50)    
Moisture  
Dew Point 48 °F    
Average Humidity 74    
Maximum Humidity 87    
Minimum Humidity 63    
Precipitation  
Precipitation 0.00 in - - ()
Sea Level Pressure  
Sea Level Pressure 30.24 in    
Wind  
Wind Speed 3 mph (ENE)    
Max Wind Speed 7 mph    
Max Gust Speed -    
Visibility 10 miles    
Events      
Averages and records for this station are not official NWS values.
T = Trace of Precipitation, MM = Missing Value Source: NWS Daily Summary

Daily Weather History Graph

Daily Weather History Graph

Search for Another Location

Airport:

Trip Planner

Search our weather history database for the weather conditions in past years. The results will help you decide how hot, cold, wet, or windy it might be!

Date:

Astronomy

Jan. 08, 2013 Rise Set
Actual Time 6:44 AM CST 5:01 PM CST
Civil Twilight 6:18 AM CST 5:27 PM CST
Nautical Twilight 5:48 AM CST 5:57 PM CST
Astronomical Twilight 5:19 AM CST 6:26 PM CST
Moon 3:18 AM CST (1/8) 2:02 PM CST (1/8)
Length of Visible Light 11h 09m
Length of Day
10h 16m
Waning Crescent, 13% of the Moon is Illuminated
Jan 8
Waning Crescent
Jan 11
New
Jan 18
First Quarter
Jan 26
Full
Feb 3
Last Quarter

Hourly Weather History & Observations

Time (CST) Temp. Windchill Dew Point Humidity Pressure Visibility Wind Dir Wind Speed Gust Speed Precip Events Conditions
12:53 AM 45.0 °F 43.5 °F 37.9 °F 76% 30.22 in 10.0 mi ENE 3.5 mph - N/A   Clear
1:53 AM 46.0 °F 44.8 °F 39.0 °F 76% 30.23 in 10.0 mi NE 3.5 mph - N/A   Mostly Cloudy
2:53 AM 46.0 °F - 39.9 °F 79% 30.22 in 10.0 mi Calm Calm - N/A   Mostly Cloudy
3:53 AM 46.9 °F - 39.9 °F 77% 30.22 in 10.0 mi ENE 5.8 mph - N/A   Overcast
4:21 AM 48.2 °F - 39.2 °F 71% 30.22 in 10.0 mi East 3.5 mph - N/A   Overcast
4:53 AM 48.0 °F - 41.0 °F 77% 30.22 in 10.0 mi East 3.5 mph - N/A   Overcast
5:53 AM 48.9 °F - 41.0 °F 74% 30.24 in 10.0 mi ENE 4.6 mph - N/A   Overcast
6:53 AM 50.0 °F - 42.1 °F 74% 30.27 in 10.0 mi ENE 4.6 mph - N/A   Overcast
7:27 AM 50.0 °F - 42.8 °F 76% 30.27 in 10.0 mi Calm Calm - N/A   Overcast
7:45 AM 51.8 °F - 42.8 °F 71% 30.28 in 10.0 mi ENE 3.5 mph - N/A   Overcast
7:53 AM 51.1 °F - 43.0 °F 74% 30.28 in 10.0 mi NE 3.5 mph - N/A   Overcast
8:53 AM 54.0 °F - 44.1 °F 69% 30.30 in 10.0 mi ENE 6.9 mph - N/A   Overcast
9:19 AM 57.2 °F - 44.6 °F 63% 30.29 in 10.0 mi East 5.8 mph - N/A   Scattered Clouds
9:53 AM 59.0 °F - 46.9 °F 64% 30.30 in 10.0 mi ESE 4.6 mph - N/A   Mostly Cloudy
10:28 AM 59.0 °F - 48.2 °F 67% 30.29 in 10.0 mi ENE 6.9 mph - N/A   Overcast
10:53 AM 59.0 °F - 48.0 °F 67% 30.27 in 10.0 mi ENE 3.5 mph - N/A   Overcast
11:53 AM 61.0 °F - 48.9 °F 64% 30.26 in 10.0 mi Calm Calm - N/A   Overcast
12:53 PM 63.0 °F - 51.1 °F 65% 30.23 in 10.0 mi NNE 3.5 mph - N/A   Overcast
1:06 PM 62.6 °F - 51.8 °F 68% 30.23 in 10.0 mi Calm Calm - N/A   Overcast
1:53 PM 63.0 °F - 51.1 °F 65% 30.22 in 10.0 mi Calm Calm - N/A   Overcast
2:53 PM 64.0 °F - 52.0 °F 65% 30.22 in 10.0 mi Calm Calm - N/A   Overcast
3:53 PM 63.0 °F - 53.1 °F 70% 30.22 in 10.0 mi North 3.5 mph - N/A   Overcast
4:22 PM 62.6 °F - 53.6 °F 72% 30.22 in 10.0 mi North 3.5 mph - N/A   Overcast
4:53 PM 62.1 °F - 53.1 °F 72% 30.20 in 10.0 mi NE 4.6 mph - N/A   Overcast
5:53 PM 60.1 °F - 53.1 °F 78% 30.21 in 10.0 mi Calm Calm - N/A   Mostly Cloudy
6:50 PM 59.0 °F - 53.6 °F 82% 30.22 in 10.0 mi Calm Calm - N/A   Mostly Cloudy
6:53 PM 59.0 °F - 53.1 °F 81% 30.22 in 10.0 mi Calm Calm - N/A   Mostly Cloudy
7:37 PM 60.8 °F - 53.6 °F 77% 30.21 in 10.0 mi NE 3.5 mph - N/A   Overcast
7:53 PM 61.0 °F - 53.1 °F 75% 30.21 in 10.0 mi ENE 5.8 mph - N/A   Overcast
8:53 PM 57.9 °F - 53.1 °F 84% 30.21 in 10.0 mi Calm Calm - N/A   Partly Cloudy
9:53 PM 57.0 °F - 53.1 °F 87% 30.22 in 10.0 mi ENE 3.5 mph - N/A   Clear
10:15 PM 59.0 °F - 53.6 °F 82% 30.22 in 10.0 mi ENE 4.6 mph - N/A   Mostly Cloudy
10:40 PM 60.8 °F - 55.4 °F 82% 30.23 in 10.0 mi East 4.6 mph - N/A   Partly Cloudy
11:53 PM 61.0 °F - 55.0 °F 81% 30.22 in 10.0 mi ENE 3.5 mph - N/A   Overcast